950508 360  1.1-  0.2+    950723 897  0.7+  0.2+    951017 360  0.3-  0.3-  

950508 360  1.1-  2.1+    950723 897  0.6-  1.0-    951017 360  0.4-  0.4-  

950508 360  0.9-  0.5+    950723 897  0.3-  0.3-    951020 410  0.3-  0.1+  

950522 658  1.0-  0.2+    950724 557  0.2-  0.5-    951020 410  1.0-  0.4+  

950522 658  1.0-  0.2+    950724 557  0.0   0.5-    951020 410  2.0-  0.3+  

950522 658  1.1-  0.1+    950724 118  0.2-  0.9-    951025 897  1.8-  0.3+  

950523 557  0.1-  0.3-    950724 557  0.1+  0.5-    951025 897  1.6-  0.2+  

950523 557  0.2-  0.2-    950724 557  0.2+  0.6-    951027 410  0.7-  0.1-  

950523 557  0.2+  0.2-    950724 557  0.0   0.7-    951027 410  0.5-  0.9-  

950523 360  0.4+  1.5+    950725 605 (2.5-  2.0-)   951027 410  0.2-  0.6+  

950523 360  0.6-  0.4+    950725 605  1.9-  1.6-    951029 413  0.2+  0.8-  

950523 360  0.2+  0.1+    950725 605 (2.4-  1.2-)   951029 413  0.1-  0.6-  

950524 557  0.1+  0.0     950725 372  1.5-  1.3+    951030 413  0.4+  0.9-  

950524 557  0.0   0.6+    950725 118  0.5-  0.3-    951030 413  0.1+  0.7-  

950524 557  0.2+  0.1+    950726 046  0.2+  0.3-    951030 413  0.3+  0.9-  

950529 118  0.2+  0.4+    950726 046  0.7+  0.5-    951112 900  1.2+  0.2+  

950530 688  0.3-  0.1+    950726 046  0.4+  0.5-    951112 900  0.8+  1.2+  

950530 688  0.1-  0.6+    950726 118  0.2-  0.2-    951116 360  1.5+  0.1+  

950531 688  0.9+  0.5+    950727 372  1.4+  0.1+    951116 360  1.5+  0.2+  

950531 688  1.6+  0.3+    950727 120  0.7-  0.8-    951118 900  0.6+  0.7+  

950601 897  0.4+  1.0+    950727 120  1.5-  1.5-    951120 323  1.8-  1.0-  

950601 897  0.9+  0.6-    950727 120 (2.6-  1.5-)   951124 897  0.5+  0.9+  

950601 360  0.6+  0.8-    950727 056 (3.9+  7.5-)   951124 897  0.7-  1.5+  

950601 360  0.4+  0.5-    950728 056 (4.1-  0.6+)   951125 410  1.0-  0.6+  

950601 360  0.6+  0.4-    950729 410  0.4+  0.2-    951125 410  0.3-  1.3+  

950605 360  0.2+  0.1+    950729 410  0.3-  0.0     951125 410  0.2+  1.5+  

950605 360  0.2-  0.3-    950729 410  0.5-  0.1-    951206 608  1.6+  0.3+  

950605 360  0.3-  0.0     950729 897  0.4-  0.0     951206 608  1.2+  1.0+  

950616 557  0.3+  0.1-    950729 897  0.9-  0.0     951208 608  1.3+  0.5+  

950616 557  0.6+  0.6+    950729 897  0.8-  0.2+    951208 608  1.4+  0.4+  

950616 557  0.1+  0.8+    950729 359  1.7+  0.2+    951210 900 (1.0+  3.2+) 

950618 118  0.4-  0.1-    950729 359  0.2+  0.3+    951217 801  1.8+  1.0-  

950620 046  0.0   0.1+    950729 359  0.9+  0.0     951218 801  1.7+  1.1-  

950620 046  0.2-  0.2+    950729 120 (2.6-  0.3-)   951223 801 (3.6+  1.9+) 

950620 046  0.1-  0.1+    950729 120 (2.7-  0.2-)   951223 801  0.6+  1.5-  

950621 557  0.4-  0.5+    950729 120 (3.3-  0.7-)   951223 400  1.6-  0.9+  

950621 557  0.2-  0.7+    950730 046  0.8+  0.1+    951223 400 (2.3+  1.7+) 

950621 557  0.5-  0.7+    950730 046  0.9+  0.2+    951224 897  1.7+  1.0+  

950622 605  0.7-  0.7+    950730 046  0.9+  0.2+    951224 897  0.6+  1.9+  

950622 605  0.4-  0.0     950730 118  0.0   0.2-    951229 764  0.8+  1.1+  

950624 605  0.2-  0.8+    950731 605  1.2-  0.4+    1996/                   

950624 605  1.2-  0.5+    950731 605  1.6-  0.1-    960103 108 (6.0-  3.3+) 

950624 691  0.2+  0.5+    950731 605  1.5-  0.0     960103 108 (0.4-  4.4+) 

950624 691  0.5+  0.6+    950731 120  0.8-  0.9+    960103 108 (1.9-  5.0+) 

950624 691  0.1-  0.1+    950731 118  0.1-  0.6+    960121 691  1.0+  1.4+  

950626 605  0.5-  0.3-    950731 118  0.3-  0.3+    960121 691  1.0+  1.4+  

950626 605  1.4-  1.8-    950731 605  0.6-  0.4+    960121 691  0.8+  1.9+  

950626 605  0.1-  1.3-    950801 605  1.1-  0.4+    960124 897 (2.6+  4.6+) 

950626 605  0.6-  0.7-    950801 605  2.0-  0.3+    960124 897 (0.3+  2.3+) 

950626 472  0.0   1.4-    950801 046  0.0   0.5+    960124 897  1.4+  1.7+  

950626 472 (2.4+  0.1-)   950801 046  0.2+  0.5+    960219 360  0.6-  1.6+  

950627 557  0.1-  0.0     950801 046  0.1+  0.6+    960219 360  0.3-  1.0+  

950627 557  0.3-  0.0     950801 595  0.3+  0.6+    960219 360  1.0-  1.5+  

950627 557  0.1-  0.1-    950801 595  0.7+  0.1-    1997/                   

950627 605  0.1+  0.4-    950801 120  1.1+  0.2-    971230 568  0.1+  0.5-  

950628 605  0.6-  0.6-    950801 120  1.3-  0.3-    971230 568  0.2-  0.7-  

950628 605  1.9-  0.5-    950802 120  0.8+  1.5-    1999/                   

950629 046  0.2+  0.6-    950802 120  0.6-  0.8-    990214 693  0.5-  0.3+  

950629 046  0.5+  0.9-    950803 360  0.8+  0.6-    990214 693  0.4+  0.4-  

950629 046  0.3+  1.0-    950803 360  0.7+  0.4-    990214 693  0.6+  0.1-  

950629 557  0.2+  0.8-    950803 107 (3.9-  1.3-)   2001/                   

950629 118  0.1-  0.9-    950803 046  0.0   0.1-    010321 867  0.5-  0.4+  

950629 557  0.4+  0.8-    950803 046  0.2+  0.1-    010321 867  0.2+  0.5+  

950629 557  0.5+  0.9-    950803 046  0.2+  0.2-    010401 867  0.1-  0.4-  

950629 360  0.6+  0.9-    950803 107 (4.2-  0.2-)   010401 867  0.2-  0.3+  

950629 360  0.6+  0.7-    950804 410  0.6-  0.1-    010401 867  0.2+  0.2-  

950629 360  0.7+  0.7-    950804 410  0.2-  0.4+    010523 695  0.0   0.4+  

950629 605  0.4+  0.4-    950804 410  0.8-  0.6-    010523 695  0.2+  0.3+  

950630 605  0.1-  0.4-    950805 046  0.1+  0.4+    010523 695  0.4+  0.4+  

950630 118  0.4+  0.7-    950805 046  0.1+  0.3+    010523 695  0.1+  0.4+  

950630 801  0.0   0.3-    950805 046  0.0   0.3+    010523 695  0.4+  0.4+  

950630 801 (2.2+  3.2-)   950805 046  0.1-  0.4+    010523 695  0.1+  0.4+  

950701 557  0.6+  0.3-    950805 605  2.0-  0.7-    010524 695  0.2-  0.4+  

950701 557  0.5+  0.3-    950805 605  1.5-  0.2+    010524 695  0.0   0.5+  

950701 118  0.3-  0.8-    950805 605(10.4-  8.7-)   010524 695  0.3+  0.7+  

950701 557  0.5+  0.3-    950805 540  1.1-  0.5+    010524 695  0.2+  0.4+  

950701 801  0.3+  0.2-    950805 540  0.9-  0.5+    010524 695  0.1+  0.4+  

950701 801  0.5+  0.1+    950805 540  0.6-  0.2+    010524 695  0.1+  0.0   

950702 118 (4.6-  6.8-)   950806 056 (4.4-  0.4+)   010524 695  0.2-  0.5+  

950707 118  0.4-  0.2+    950806 056 (1.4-  3.2-)   010524 695  0.2+  0.1+  

950707 118  0.3-  0.6+    950807 056  1.1-  1.0-    010524 695  0.3+  0.6+  

950707 118  1.9-  1.4+    950808 372  1.2+  0.4+    010524 695  0.2-  0.1+  

950707 118  1.3-  1.6+    950808 372  0.6+  0.0     010524 695  0.2-  0.5+  

950707 595  0.2+  0.4+    950809 372  0.9+  0.8+    010525 695  0.2-  0.5+  

950707 595  0.1-  0.4+    950809 372  0.6+  0.6+    010525 695  0.2-  0.4+  

950708 605  1.2-  0.1+    950810 046  0.6+  0.1-    010525 695  0.2-  0.5+  

950708 557  0.4+  0.4+    950810 046  0.3+  0.0     010525 695  0.1-  0.6+  

950708 605  1.8+  1.2+    950810 046  0.7+  0.3+    010525 695  0.3-  0.6+  

950708 557  0.3+  0.3+    950815 422  0.8+  0.3+    010525 695  0.1-  0.6+  





    P/1997 V1 (Larsen) 

Epoch 2008 Sept 11.0 TT = JDT 2454720.5  

T 2008 Aug. 27.04829 TT                                 Nakano

q   3.2720612            (2000.0)            P               Q

n   0.09063687     Peri.  133.77716     +0.97561920     -0.13679272

a   4.9083190      Node   234.81501     +0.08527189     +0.95681999

e   0.3333642      Incl.   12.12180     +0.20222732     +0.25648246

P  10.87 (+/- 0.05 day)

From 260 observations 1997 Nov. 3-1998 Feb. 19, mean residual 0".47.

Residuals in seconds of arc 

1997/                     971106 867  0.4+  0.8-    971130 735  0.6+  0.0   

971103 691  0.8+  0.3+    971106 867  0.3+  0.6-    971130 735  0.5+  0.3+  

971103 691  0.8+  0.2+    971106 900  0.5-  0.2-    971202 355  0.5-  0.2+  

971103 691  1.0+  0.4+    971106 900  0.8-  0.6-    971202 355  0.6-  0.4-  

971103 691  0.7+  0.2+    971106 046  0.1+  0.0     971202 355  0.0   0.0   

971103 691  0.6+  0.2+    971106 046  0.2+  0.1+    971204 360  0.1+  0.8+  

971103 691  0.6+  0.2+    971106 046  0.1+  0.2+    971204 360  0.1-  0.8+  

971103 691  0.5+  0.1-    971107 360  0.2+  0.2+    971204 372  0.3+  0.3+  

971103 691  0.5+  0.1+    971107 360  0.2+  0.2+    971204 402  0.0   0.7+  

971103 691  0.4+  0.0     971108 696  0.4+  0.3+    971204 402  0.5-  0.8+  

971103 046  0.5+  0.3+    971108 696  0.4+  0.4+    971204 402  0.2-  0.4+  

971103 046  0.0   0.1-    971108 696  0.5+  0.3+    971204 897  0.8+  0.4+  

971103 046  0.0   0.3-    971108 402  0.1+  0.1-    971204 897  0.5-  0.4-  

971103 046  0.1-  0.4+    971108 402  0.2+  0.0     971205 900  1.1+  0.0   

971103 557  0.3+  0.2-    971108 402  0.2+  0.2+    971205 900  0.4-  0.6+  

971103 557  0.2+  0.2-    971108 897  0.6-  0.6-    971205 372  1.2-  1.3+  

971103 557  0.5+  0.2-    971108 897  0.3+  0.6-    971205 504  0.2+  0.1+  

971103 557  0.4+  0.0     971108 897  0.2+  0.4-    971205 504  0.1+  0.5-  

971104 954  0.7-  0.1-    971108 367  0.4+  0.3-    971206 046  0.1-  0.6+  

971104 954  0.0   0.0     971108 367  0.4+  0.1-    971206 046  0.3+  0.9+  

971104 954  1.1-  0.1+    971108 367  0.2+  0.5-    971206 046  0.2+  0.4+  

971104 954  0.1-  0.2+    971108 864  0.2-  0.4-    971214 402  0.7+  0.4-  

971104 954  0.4-  0.0     971108 864  0.3-  0.0     971214 402  0.8+  0.4-  

971104 954  0.1+  0.2+    971109 900  0.5-  0.0     971214 402  0.4+  0.7-  

971104 954  0.0   0.3+    971109 900  0.2-  0.1+    971215 897  0.8+  1.1-  

971104 954  0.3-  0.4+    971109 402  0.2+  0.3+    971215 897  1.3-  0.4-  

971104 954  0.4-  0.3+    971109 402  0.2+  0.2+    971218 372  0.2-  1.0+  

971104 954  0.2-  0.0     971109 402  0.1+  0.0     971218 372  0.5-  0.2+  

971104 954  0.4-  0.1-    971109 355  0.2-  0.3+    971218 372  0.2+  0.7+  

971104 954  0.2+  0.3+    971109 355  0.3+  0.3-    971219 372  1.3-  0.0   

971104 954  0.2-  0.3+    971109 355  0.4+  0.3+    971221 897  1.0-  0.8+  

971104 954  0.1-  0.1+    971109 352  0.4-  0.0     971221 897  1.7-  0.6-  

